User: anonymous   Login
Location: Lawrence
(38.9720°N, 95.2350°W)
Time: 13:27:40
(UTC-06:00)
Language:

ALOS - Orbit

View from above orbital plane
View from above orbital plane
View from above satellite
View from above satellite

Ground track
Ground track

The orbit data is extracted from the following two-line orbital elements,

1 28931U 06002A   17055.23747758  .00000154  00000-0  39255-4 0  9990
2 28931  97.8565  88.1772 0001141  46.1734 313.9562 14.62315111590952
Epoch (UTC): 24 February 2017 05:41:58
Eccentricity: 0.0001141
inclination: 97.8565°
perigee height: 685 km
apogee height: 686 km
right ascension of ascending node: 88.1772°
argument of perigee: 46.1734°
revolutions per day: 14.62315111
mean anomaly at epoch: 313.9562°
orbit number at epoch: 59095

The dashed part of the orbit path shows where the satellite is in the earth's shadow,  

DLR